Appleton, MN

8:58 PM CDT on March 30, 2017 (GMT -0500)
Appleton Municipal

Weather History for KAQP - June, 2013

Change the Weather History Date:

Wednesday, June 26, 2013

  Actual Average Record
Temperature  
Mean Temperature 78 °F -  
Max Temperature 87 °F 78 °F 89 °F (1998)
Min Temperature 68 °F 56 °F 44 °F (2004)
Cooling Degree Days 12    
Growing Degree Days 28 (Base 50)    
Moisture  
Dew Point 64 °F    
Average Humidity 63    
Maximum Humidity 88    
Minimum Humidity 33    
Precipitation  
Precipitation 0.24 in - - ()
Sea Level Pressure  
Sea Level Pressure 29.74 in    
Wind  
Wind Speed 8 mph (WNW)    
Max Wind Speed 25 mph    
Max Gust Speed 28 mph    
Visibility 10 miles    
Events Rain , Thunderstorm    
Averages and records for this station are not official NWS values.
T = Trace of Precipitation, MM = Missing Value Source: NWS Daily Summary

Daily Weather History Graph

Daily Weather History Graph

Search for Another Location

Airport or City:

Trip Planner

Search our weather history database for the weather conditions in past years. The results will help you decide how hot, cold, wet, or windy it might be!

Date:

Astronomy

Jun. 26, 2013 Rise Set
Actual Time 5:37 AM CDT 9:15 PM CDT
Civil Twilight 5:00 AM CDT 9:53 PM CDT
Nautical Twilight 4:10 AM CDT 10:43 PM CDT
Astronomical Twilight 3:03 AM CDT 11:50 PM CDT
Moon 11:26 PM CDT (6/26) 9:42 AM CDT (6/26)
Length of Visible Light 16h 53m
Length of Day
15h 37m
Waning Gibbous, 85% of the Moon is Illuminated
Jun 26
Waning Gibbous
Jun 29
Last Quarter
Jul 8
New
Jul 15
First Quarter
Jul 22
Full

Hourly Weather History & Observations

Time (CDT) Temp. Heat Index Dew Point Humidity Pressure Visibility Wind Dir Wind Speed Gust Speed Precip Events Conditions
12:13 AM 77.0 °F - 69.8 °F 78% 29.66 in 10.0 mi SE 5.8 mph - N/A   Clear
12:33 AM 75.2 °F - 69.8 °F 83% 29.67 in 10.0 mi SSE 5.8 mph - N/A   Clear
12:53 AM 75.2 °F - 69.8 °F 83% 29.67 in 10.0 mi SE 4.6 mph - N/A   Clear
1:13 AM 75.2 °F - 69.8 °F 83% 29.67 in 10.0 mi SSE 3.5 mph - N/A   Clear
1:34 AM 75.2 °F - 69.8 °F 83% 29.67 in 10.0 mi South 5.8 mph - N/A   Clear
1:53 AM 75.2 °F - 69.8 °F 83% 29.65 in 10.0 mi South 5.8 mph - N/A   Clear
2:13 AM 75.2 °F - 69.8 °F 83% 29.67 in 10.0 mi Calm Calm - N/A Thunderstorm Clear
2:34 AM 73.4 °F - 64.4 °F 73% 29.68 in 10.0 mi North 25.3 mph - N/A   Mostly Cloudy
2:54 AM 71.6 °F - 60.8 °F 69% 29.67 in 10.0 mi NNW 6.9 mph - N/A Rain , Thunderstorm Rain
3:13 AM 69.8 °F - 62.6 °F 78% 29.67 in 7.0 mi South 11.5 mph - 0.06 in Rain , Thunderstorm Heavy Thunderstorms and Rain
3:33 AM 71.6 °F - 64.4 °F 78% 29.63 in 10.0 mi NNW 5.8 mph - 0.24 in Rain , Thunderstorm Thunderstorms and Rain
3:53 AM 71.6 °F - 66.2 °F 83% 29.66 in 10.0 mi West 8.1 mph - 0.24 in Thunderstorm Unknown
4:13 AM 69.8 °F - 66.2 °F 88% 29.67 in 10.0 mi Calm Calm - N/A   Clear
4:34 AM 69.8 °F - 66.2 °F 88% 29.66 in 10.0 mi Calm Calm - N/A Thunderstorm Clear
4:53 AM 69.8 °F - 64.4 °F 83% 29.66 in 10.0 mi Calm Calm - N/A   Clear
5:13 AM 68.0 °F - 64.4 °F 88% 29.66 in 10.0 mi West 3.5 mph - N/A   Clear
5:33 AM 68.0 °F - 64.4 °F 88% 29.67 in 10.0 mi Calm Calm - N/A   Clear
5:53 AM 68.0 °F - 64.4 °F 88% 29.68 in 10.0 mi NE 3.5 mph - N/A   Clear
6:14 AM 68.0 °F - 64.4 °F 88% 29.69 in 7.0 mi Calm Calm - N/A   Clear
6:33 AM 68.0 °F - 64.4 °F 88% 29.70 in 10.0 mi Calm Calm - N/A   Clear
6:53 AM 69.8 °F - 66.2 °F 88% 29.70 in 10.0 mi Calm Calm - N/A   Clear
7:13 AM 69.8 °F - 66.2 °F 88% 29.70 in 10.0 mi Calm Calm - N/A   Clear
7:33 AM 71.6 °F - 66.2 °F 83% 29.70 in 10.0 mi Calm Calm - N/A   Clear
7:53 AM 73.4 °F - 66.2 °F 78% 29.72 in 10.0 mi West 5.8 mph - N/A   Clear
8:14 AM 73.4 °F - 66.2 °F 78% 29.71 in 10.0 mi West 8.1 mph - N/A   Clear
8:33 AM 75.2 °F - 66.2 °F 73% 29.71 in 10.0 mi WNW 9.2 mph - N/A   Clear
8:53 AM 77.0 °F - 68.0 °F 74% 29.71 in 10.0 mi West 9.2 mph - N/A   Clear
9:13 AM 78.8 °F - 66.2 °F 65% 29.72 in 10.0 mi WNW 10.4 mph - N/A   Clear
9:33 AM 78.8 °F - 66.2 °F 65% 29.73 in 10.0 mi WNW 12.7 mph - N/A   Clear
9:53 AM 78.8 °F - 66.2 °F 65% 29.73 in 10.0 mi WNW 15.0 mph - N/A   Clear
10:14 AM 80.6 °F 82.7 °F 66.2 °F 61% 29.73 in 10.0 mi WNW 11.5 mph 19.6 mph N/A   Clear
10:34 AM 80.6 °F 82.7 °F 66.2 °F 61% 29.74 in 10.0 mi WNW 10.4 mph - N/A   Clear
10:53 AM 80.6 °F 82.7 °F 66.2 °F 61% 29.75 in 10.0 mi WNW 12.7 mph - N/A   Clear
11:13 AM 82.4 °F 83.9 °F 64.4 °F 54% 29.75 in 10.0 mi WNW 15.0 mph 20.7 mph N/A   Clear
11:33 AM 82.4 °F 83.9 °F 64.4 °F 54% 29.76 in 10.0 mi NW 12.7 mph - N/A   Clear
11:54 AM 82.4 °F 83.9 °F 64.4 °F 54% 29.76 in 10.0 mi NW 17.3 mph - N/A   Clear
12:13 PM 84.2 °F 85.0 °F 62.6 °F 48% 29.77 in 10.0 mi NW 16.1 mph 24.2 mph N/A   Clear
12:34 PM 84.2 °F 85.6 °F 64.4 °F 51% 29.77 in 10.0 mi NW 17.3 mph - N/A   Scattered Clouds
12:53 PM 84.2 °F 85.6 °F 64.4 °F 51% 29.78 in 10.0 mi NW 15.0 mph 24.2 mph N/A   Scattered Clouds
1:13 PM 84.2 °F 85.0 °F 62.6 °F 48% 29.78 in 10.0 mi WNW 19.6 mph 24.2 mph N/A   Scattered Clouds
1:33 PM 84.2 °F 85.0 °F 62.6 °F 48% 29.78 in 10.0 mi NW 13.8 mph 23.0 mph N/A   Clear
1:53 PM 84.2 °F 83.8 °F 59.0 °F 42% 29.78 in 10.0 mi NW 19.6 mph 27.6 mph N/A   Clear
2:13 PM 84.2 °F 84.4 °F 60.8 °F 45% 29.79 in 10.0 mi NW 17.3 mph 25.3 mph N/A   Clear
2:33 PM 86.0 °F 86.1 °F 60.8 °F 43% 29.78 in 10.0 mi WNW 19.6 mph 25.3 mph N/A   Clear
2:54 PM 86.0 °F 84.9 °F 57.2 °F 37% 29.78 in 10.0 mi NW 20.7 mph 24.2 mph N/A   Clear
3:13 PM 86.0 °F 84.9 °F 57.2 °F 37% 29.79 in 10.0 mi NW 19.6 mph 27.6 mph N/A   Clear
3:34 PM 87.8 °F 86.5 °F 57.2 °F 35% 29.78 in 10.0 mi WNW 19.6 mph 23.0 mph N/A   Clear
3:53 PM 87.8 °F 86.1 °F 55.4 °F 33% 29.78 in 10.0 mi NW 16.1 mph 24.2 mph N/A   Clear
4:14 PM 87.8 °F 86.1 °F 55.4 °F 33% 29.78 in 10.0 mi WNW 17.3 mph 21.9 mph N/A   Clear
4:34 PM 87.8 °F 86.5 °F 57.2 °F 35% 29.78 in 10.0 mi NW 15.0 mph 19.6 mph N/A   Clear
4:53 PM 87.8 °F 86.1 °F 55.4 °F 33% 29.78 in 10.0 mi NW 13.8 mph 21.9 mph N/A   Clear
5:13 PM 87.8 °F 86.1 °F 55.4 °F 33% 29.78 in 10.0 mi NW 15.0 mph 18.4 mph N/A   Clear
5:33 PM 87.8 °F 86.5 °F 57.2 °F 35% 29.78 in 10.0 mi NW 9.2 mph 17.3 mph N/A   Clear
5:53 PM 86.0 °F 84.9 °F 57.2 °F 37% 29.78 in 10.0 mi NW 12.7 mph - N/A   Clear
6:14 PM 87.8 °F 86.5 °F 57.2 °F 35% 29.78 in 10.0 mi NW 11.5 mph - N/A   Clear
6:33 PM 87.8 °F 86.5 °F 57.2 °F 35% 29.78 in 10.0 mi NNW 9.2 mph - N/A   Clear
6:53 PM 84.2 °F 83.8 °F 59.0 °F 42% 29.78 in 10.0 mi NNW 6.9 mph - N/A   Clear
7:14 PM 84.2 °F 84.4 °F 60.8 °F 45% 29.79 in 10.0 mi NNW 8.1 mph - N/A   Clear
7:33 PM 82.4 °F 83.4 °F 62.6 °F 51% 29.80 in 10.0 mi NNW 5.8 mph - N/A   Clear
7:53 PM 82.4 °F 83.4 °F 62.6 °F 51% 29.80 in 10.0 mi Calm Calm - N/A   Clear
8:13 PM 82.4 °F 83.4 °F 62.6 °F 51% 29.80 in 10.0 mi Calm Calm - N/A   Clear
8:33 PM 80.6 °F 82.7 °F 66.2 °F 61% 29.81 in 10.0 mi Calm Calm - N/A   Clear
8:53 PM 78.8 °F - 66.2 °F 65% 29.80 in 10.0 mi Calm Calm - N/A   Scattered Clouds
9:13 PM 78.8 °F - 66.2 °F 65% 29.82 in 10.0 mi WSW 5.8 mph - N/A   Clear
9:34 PM 77.0 °F - 66.2 °F 69% 29.84 in 10.0 mi West 9.2 mph - N/A Rain Light Rain
9:53 PM 77.0 °F - 64.4 °F 65% 29.83 in 10.0 mi WNW 4.6 mph - N/A Rain Light Rain
10:14 PM 75.2 °F - 64.4 °F 69% 29.82 in 10.0 mi SW 6.9 mph - N/A   Mostly Cloudy
10:33 PM 73.4 °F - 64.4 °F 73% 29.82 in 10.0 mi SW 9.2 mph - N/A   Scattered Clouds
10:53 PM 73.4 °F - 64.4 °F 73% 29.82 in 10.0 mi SW 5.8 mph - N/A   Scattered Clouds
11:13 PM 71.6 °F - 64.4 °F 78% 29.82 in 10.0 mi SW 5.8 mph - N/A   Scattered Clouds
11:33 PM 71.6 °F - 64.4 °F 78% 29.82 in 10.0 mi SW 6.9 mph - N/A   Scattered Clouds
11:53 PM 71.6 °F - 64.4 °F 78% 29.82 in 10.0 mi West 3.5 mph - N/A   Clear